Time,TemperatureF,DewpointF,PressureIn,WindDirection,WindDirectionDegrees,WindSpeedMPH,WindSpeedGustMPH,Humidity,HourlyPrecipIn,Conditions,Clouds,dailyrainin,SoftwareType,DateUTC
2013-03-02 00:00:00,32.0,31.5,29.59,NNW,338,3.4,3.4,98,0.00,,OVC,0.00,VWS V14.01,2013-03-02 05:00:00,
2013-03-02 00:01:00,32.0,31.5,29.59,NW,315,2.9,4.3,98,0.00,,OVC,0.00,VWS V14.01,2013-03-02 05:01:00,
2013-03-02 00:06:00,32.0,31.5,29.59,NNW,338,4.0,4.0,98,0.00,,OVC,0.00,VWS V14.01,2013-03-02 05:06:00,
2013-03-02 00:11:00,32.0,31.5,29.59,NNW,338,4.0,6.3,98,0.00,,OVC,0.00,VWS V14.01,2013-03-02 05:11:00,
2013-03-02 00:16:00,32.0,31.5,29.59,NNW,338,3.4,4.7,98,0.00,,OVC,0.00,VWS V14.01,2013-03-02 05:16:00,
2013-03-02 00:21:00,32.0,31.5,29.59,NNW,338,4.0,4.0,98,0.00,,OVC,0.00,VWS V14.01,2013-03-02 05:21:00,
2013-03-02 00:26:00,32.0,31.5,29.59,NNW,338,3.8,3.8,98,0.00,,OVC,0.00,VWS V14.01,2013-03-02 05:26:00,
2013-03-02 00:30:00,32.0,31.5,29.59,NNW,338,3.8,3.8,98,0.00,,OVC,0.00,VWS V14.01,2013-03-02 05:30:00,
2013-03-02 00:31:00,32.0,31.5,29.59,NNW,338,3.4,4.3,98,0.00,,OVC,0.00,VWS V14.01,2013-03-02 05:31:00,
2013-03-02 00:36:00,32.0,31.5,29.59,NNW,338,3.4,4.3,98,0.00,,OVC,0.00,VWS V14.01,2013-03-02 05:36:00,
2013-03-02 00:41:00,32.2,31.7,29.59,NNW,338,4.3,4.3,98,0.00,,OVC,0.00,VWS V14.01,2013-03-02 05:41:00,
2013-03-02 00:46:00,32.2,31.7,29.59,NNW,338,2.9,3.1,98,0.00,,OVC,0.00,VWS V14.01,2013-03-02 05:46:00,
2013-03-02 00:51:00,32.2,31.7,29.59,NNW,338,3.4,4.0,98,0.00,,OVC,0.00,VWS V14.01,2013-03-02 05:51:00,
2013-03-02 00:56:00,32.2,31.7,29.59,NNW,338,3.6,3.8,98,0.00,,OVC,0.00,VWS V14.01,2013-03-02 05:56:00,
2013-03-02 01:00:00,32.2,31.7,29.59,NNW,338,4.3,4.3,98,0.00,,OVC,0.00,VWS V14.01,2013-03-02 06:00:00,
2013-03-02 01:01:00,32.2,31.7,29.59,NNW,338,3.8,4.0,98,0.00,,OVC,0.00,VWS V14.01,2013-03-02 06:01:00,
2013-03-02 01:06:00,32.0,31.5,29.59,NNW,338,5.8,5.8,98,0.00,,OVC,0.00,VWS V14.01,2013-03-02 06:06:00,
2013-03-02 01:11:00,32.2,31.7,29.59,NNW,338,3.6,4.3,98,0.00,,OVC,0.00,VWS V14.01,2013-03-02 06:11:00,
2013-03-02 01:16:00,32.2,31.7,29.59,NNW,338,3.8,6.3,98,0.00,,OVC,0.00,VWS V14.01,2013-03-02 06:16:00,
2013-03-02 01:21:00,32.2,31.7,29.59,NNW,338,4.9,4.9,98,0.00,,OVC,0.00,VWS V14.01,2013-03-02 06:21:00,
2013-03-02 01:26:00,32.2,31.7,29.59,NNW,338,5.8,5.8,98,0.00,,OVC,0.00,VWS V14.01,2013-03-02 06:26:00,
2013-03-02 01:30:00,32.2,31.7,29.59,NNW,338,4.0,5.8,98,0.00,,OVC,0.00,VWS V14.01,2013-03-02 06:30:00,
2013-03-02 01:31:00,32.0,31.5,29.59,NNW,338,3.6,4.3,98,0.00,,OVC,0.00,VWS V14.01,2013-03-02 06:31:00,
2013-03-02 01:36:00,32.0,31.5,29.59,NNW,338,6.3,6.3,98,0.00,,OVC,0.00,VWS V14.01,2013-03-02 06:36:00,
2013-03-02 01:41:00,32.0,31.5,29.59,NNW,338,4.9,6.3,98,0.00,,OVC,0.00,VWS V14.01,2013-03-02 06:41:00,
2013-03-02 01:46:00,32.0,31.5,29.59,NNW,338,5.4,5.4,98,0.00,,OVC,0.00,VWS V14.01,2013-03-02 06:46:00,
2013-03-02 01:51:00,32.0,31.5,29.56,NNW,338,4.9,5.6,98,0.00,,OVC,0.00,VWS V14.01,2013-03-02 06:51:00,
2013-03-02 01:56:00,31.8,31.3,29.56,NW,315,3.4,4.3,98,0.00,,OVC,0.00,VWS V14.01,2013-03-02 06:56:00,
2013-03-02 02:00:00,31.8,31.3,29.56,NNW,338,3.8,3.8,98,0.00,,OVC,0.00,VWS V14.01,2013-03-02 07:00:00,
2013-03-02 02:01:00,31.8,31.3,29.56,NNW,338,3.8,6.3,98,0.00,,OVC,0.00,VWS V14.01,2013-03-02 07:01:00,
2013-03-02 02:06:00,31.8,31.3,29.56,NNW,338,3.4,5.8,98,0.00,,OVC,0.00,VWS V14.01,2013-03-02 07:06:00,
2013-03-02 02:11:00,31.8,31.3,29.56,NW,315,2.7,4.3,98,0.00,,OVC,0.00,VWS V14.01,2013-03-02 07:11:00,
2013-03-02 02:16:00,31.8,31.3,29.56,NW,315,4.0,4.0,98,0.00,,OVC,0.00,VWS V14.01,2013-03-02 07:16:00,
2013-03-02 02:21:00,31.8,31.3,29.56,NNW,338,2.7,3.6,98,0.00,,OVC,0.00,VWS V14.01,2013-03-02 07:21:00,
2013-03-02 02:26:00,31.8,31.3,29.56,NNW,338,3.1,3.8,98,0.00,,OVC,0.00,VWS V14.01,2013-03-02 07:26:00,
2013-03-02 02:30:00,31.8,31.3,29.56,NNW,338,3.1,3.6,98,0.00,,OVC,0.00,VWS V14.01,2013-03-02 07:30:00,
2013-03-02 02:31:00,31.8,31.3,29.56,NNW,338,2.7,3.8,98,0.00,,OVC,0.00,VWS V14.01,2013-03-02 07:31:00,
2013-03-02 02:36:00,31.8,31.3,29.59,NNW,338,3.6,4.7,98,0.00,,OVC,0.00,VWS V14.01,2013-03-02 07:36:00,
2013-03-02 02:41:00,31.8,31.3,29.59,NNW,338,4.9,5.6,98,0.00,,OVC,0.00,VWS V14.01,2013-03-02 07:41:00,
2013-03-02 02:46:00,31.8,31.3,29.59,NNW,338,5.4,5.8,98,0.00,,OVC,0.00,VWS V14.01,2013-03-02 07:46:00,
2013-03-02 02:51:00,31.8,31.3,29.56,NNW,338,4.7,6.3,98,0.00,,OVC,0.00,VWS V14.01,2013-03-02 07:51:00,
2013-03-02 02:56:00,31.8,31.3,29.56,NNW,338,4.3,5.6,98,0.00,,OVC,0.00,VWS V14.01,2013-03-02 07:56:00,
2013-03-02 03:00:00,31.8,31.3,29.56,NNW,338,4.3,5.6,98,0.00,,OVC,0.00,VWS V14.01,2013-03-02 08:00:00,
2013-03-02 03:01:00,31.8,31.3,29.56,NNW,338,3.4,4.3,98,0.00,,OVC,0.00,VWS V14.01,2013-03-02 08:01:00,
2013-03-02 03:06:00,31.8,31.3,29.56,NNW,338,4.3,6.3,98,0.00,,OVC,0.00,VWS V14.01,2013-03-02 08:06:00,
2013-03-02 03:11:00,31.8,31.1,29.56,NNW,338,4.5,6.0,97,0.00,,OVC,0.00,VWS V14.01,2013-03-02 08:11:00,
2013-03-02 03:16:00,31.8,31.1,29.56,NNW,338,4.0,6.3,97,0.00,,OVC,0.00,VWS V14.01,2013-03-02 08:16:00,
2013-03-02 03:21:00,31.8,31.1,29.56,NNW,338,5.6,6.0,97,0.00,,OVC,0.00,VWS V14.01,2013-03-02 08:21:00,
2013-03-02 03:26:00,31.8,31.1,29.56,NNW,338,3.8,6.0,97,0.00,,OVC,0.00,VWS V14.01,2013-03-02 08:26:00,
2013-03-02 03:30:00,31.8,31.1,29.56,NNW,338,3.8,6.0,97,0.00,,OVC,0.00,VWS V14.01,2013-03-02 08:30:00,
2013-03-02 03:31:00,31.8,31.1,29.56,NW,315,5.8,5.8,97,0.00,,OVC,0.00,VWS V14.01,2013-03-02 08:31:00,
2013-03-02 03:36:00,31.6,30.9,29.56,NNW,338,6.3,7.2,97,0.00,,OVC,0.00,VWS V14.01,2013-03-02 08:36:00,
2013-03-02 03:41:00,31.6,30.9,29.56,NNW,338,5.4,6.0,97,0.00,,OVC,0.00,VWS V14.01,2013-03-02 08:41:00,
2013-03-02 03:46:00,31.6,30.9,29.56,NNW,338,6.5,7.6,97,0.00,,OVC,0.00,VWS V14.01,2013-03-02 08:46:00,
2013-03-02 03:51:00,31.6,30.9,29.56,NW,315,4.9,5.8,97,0.00,,OVC,0.00,VWS V14.01,2013-03-02 08:51:00,
2013-03-02 03:56:00,31.6,30.9,29.56,NNW,338,4.0,6.0,97,0.00,,OVC,0.00,VWS V14.01,2013-03-02 08:56:00,
2013-03-02 04:00:00,31.6,30.9,29.56,NNW,338,5.6,6.0,97,0.00,,OVC,0.00,VWS V14.01,2013-03-02 09:00:00,
2013-03-02 04:01:00,31.5,30.7,29.56,NW,315,7.2,7.2,97,0.00,,OVC,0.00,VWS V14.01,2013-03-02 09:01:00,
2013-03-02 04:06:00,31.5,30.7,29.56,NNW,338,4.0,5.4,97,0.00,,OVC,0.00,VWS V14.01,2013-03-02 09:06:00,
2013-03-02 04:11:00,31.3,30.5,29.56,NNW,338,5.8,6.5,97,0.00,,OVC,0.00,VWS V14.01,2013-03-02 09:11:00,
2013-03-02 04:16:00,31.3,30.5,29.56,NNW,338,3.4,5.4,97,0.00,,OVC,0.00,VWS V14.01,2013-03-02 09:16:00,
2013-03-02 04:21:00,31.3,30.5,29.56,NNW,338,3.4,3.8,97,0.00,,OVC,0.00,VWS V14.01,2013-03-02 09:21:00,
2013-03-02 04:26:00,31.3,30.5,29.56,NNW,338,4.7,4.7,97,0.00,,OVC,0.00,VWS V14.01,2013-03-02 09:26:00,
2013-03-02 04:30:00,31.3,30.5,29.56,NNW,338,4.3,4.3,97,0.00,,OVC,0.00,VWS V14.01,2013-03-02 09:30:00,
2013-03-02 04:31:00,31.3,30.5,29.56,NNW,338,3.1,3.4,97,0.00,,OVC,0.00,VWS V14.01,2013-03-02 09:31:00,
2013-03-02 04:36:00,31.3,30.5,29.56,NNW,338,2.7,4.9,97,0.00,,OVC,0.00,VWS V14.01,2013-03-02 09:36:00,
2013-03-02 04:41:00,31.3,30.5,29.56,NNW,338,3.8,4.0,97,0.00,,OVC,0.00,VWS V14.01,2013-03-02 09:41:00,
2013-03-02 04:46:00,31.1,30.4,29.56,NNW,338,3.6,4.0,97,0.00,,OVC,0.00,VWS V14.01,2013-03-02 09:46:00,
2013-03-02 04:51:00,31.1,30.4,29.56,NNW,338,3.8,5.8,97,0.00,,OVC,0.00,VWS V14.01,2013-03-02 09:51:00,
2013-03-02 04:56:00,31.1,30.1,29.56,NNW,338,3.1,7.4,96,0.00,,OVC,0.00,VWS V14.01,2013-03-02 09:56:00,
2013-03-02 05:00:00,31.1,30.4,29.56,NNW,338,6.5,7.4,97,0.00,,OVC,0.00,VWS V14.01,2013-03-02 10:00:00,
2013-03-02 05:01:00,31.1,30.1,29.59,NNW,338,4.9,5.8,96,0.00,,OVC,0.00,VWS V14.01,2013-03-02 10:01:00,
2013-03-02 05:07:00,31.1,30.1,29.59,NNW,338,4.0,4.3,96,0.00,,OVC,0.00,VWS V14.01,2013-03-02 10:07:00,
2013-03-02 05:12:00,31.1,29.8,29.59,NNW,338,6.0,6.0,95,0.00,,OVC,0.00,VWS V14.01,2013-03-02 10:12:00,
2013-03-02 05:17:00,31.1,29.8,29.56,NNW,338,3.8,6.0,95,0.00,,OVC,0.00,VWS V14.01,2013-03-02 10:17:00,
2013-03-02 05:22:00,31.1,29.8,29.56,NNW,338,7.4,7.4,95,0.00,,OVC,0.00,VWS V14.01,2013-03-02 10:22:00,
2013-03-02 05:27:00,31.1,29.6,29.56,NNW,338,3.1,4.9,94,0.00,,OVC,0.00,VWS V14.01,2013-03-02 10:27:00,
2013-03-02 05:30:00,31.1,29.8,29.56,NNW,338,4.7,5.6,95,0.00,,OVC,0.00,VWS V14.01,2013-03-02 10:30:00,
2013-03-02 05:32:00,30.9,29.4,29.56,NW,315,3.8,4.9,94,0.00,,OVC,0.00,VWS V14.01,2013-03-02 10:32:00,
2013-03-02 05:37:00,30.9,29.4,29.56,NNW,338,4.5,6.3,94,0.00,,OVC,0.00,VWS V14.01,2013-03-02 10:37:00,
2013-03-02 05:42:00,30.9,29.1,29.56,NNW,338,5.6,5.6,93,0.00,,OVC,0.00,VWS V14.01,2013-03-02 10:42:00,
2013-03-02 05:47:00,30.9,29.1,29.56,NNW,338,3.8,4.3,93,0.00,,OVC,0.00,VWS V14.01,2013-03-02 10:47:00,
2013-03-02 05:52:00,30.9,28.9,29.56,NNW,338,5.8,6.3,92,0.00,,OVC,0.00,VWS V14.01,2013-03-02 10:52:00,
2013-03-02 05:57:00,30.9,28.6,29.56,NNW,338,3.6,5.6,91,0.00,,OVC,0.00,VWS V14.01,2013-03-02 10:57:00,
2013-03-02 06:00:00,30.9,28.9,29.56,NNW,338,5.4,7.4,92,0.00,,OVC,0.00,VWS V14.01,2013-03-02 11:00:00,
2013-03-02 06:02:00,30.7,28.4,29.56,NNW,338,3.4,5.8,91,0.00,,OVC,0.00,VWS V14.01,2013-03-02 11:02:00,
2013-03-02 06:07:00,30.7,28.4,29.56,NNW,338,4.3,4.3,91,0.00,,OVC,0.00,VWS V14.01,2013-03-02 11:07:00,
2013-03-02 06:12:00,30.7,28.4,29.56,NW,315,8.7,8.7,91,0.00,,OVC,0.00,VWS V14.01,2013-03-02 11:12:00,
2013-03-02 06:17:00,30.7,28.2,29.56,NNW,338,4.9,4.9,90,0.00,,OVC,0.00,VWS V14.01,2013-03-02 11:17:00,
2013-03-02 06:22:00,30.7,28.2,29.56,NW,315,5.4,5.4,90,0.00,,OVC,0.00,VWS V14.01,2013-03-02 11:22:00,
2013-03-02 06:27:00,30.7,28.2,29.56,NNW,338,3.4,5.8,90,0.00,,OVC,0.00,VWS V14.01,2013-03-02 11:27:00,
2013-03-02 06:30:00,30.7,28.2,29.56,NNW,338,4.0,4.0,90,0.00,,OVC,0.00,VWS V14.01,2013-03-02 11:30:00,
2013-03-02 06:32:00,30.7,28.2,29.56,NNW,338,5.6,6.3,90,0.00,,OVC,0.00,VWS V14.01,2013-03-02 11:32:00,
2013-03-02 06:37:00,30.7,27.9,29.56,NNW,338,8.5,8.5,89,0.00,,OVC,0.00,VWS V14.01,2013-03-02 11:37:00,
2013-03-02 06:42:00,30.9,27.8,29.56,NNW,338,4.9,7.4,88,0.00,,OVC,0.00,VWS V14.01,2013-03-02 11:42:00,
2013-03-02 06:47:00,31.1,28.0,29.59,NNW,338,5.6,8.1,88,0.00,,OVC,0.00,VWS V14.01,2013-03-02 11:47:00,
2013-03-02 06:52:00,31.1,28.0,29.59,NNW,338,5.6,5.6,88,0.00,,OVC,0.00,VWS V14.01,2013-03-02 11:52:00,
2013-03-02 06:57:00,31.1,27.7,29.59,NNW,338,5.6,7.6,87,0.00,,OVC,0.00,VWS V14.01,2013-03-02 11:57:00,
2013-03-02 07:00:00,31.1,28.0,29.59,NNW,338,4.0,8.7,88,0.00,,OVC,0.00,VWS V14.01,2013-03-02 12:00:00,
2013-03-02 07:02:00,31.1,27.4,29.59,NNW,338,6.3,9.8,86,0.00,,OVC,0.00,VWS V14.01,2013-03-02 12:02:00,
2013-03-02 07:07:00,31.3,27.3,29.59,NNW,338,4.9,5.4,85,0.00,,OVC,0.00,VWS V14.01,2013-03-02 12:07:00,
2013-03-02 07:12:00,31.3,27.3,29.59,NNW,338,5.4,7.6,85,0.00,,OVC,0.00,VWS V14.01,2013-03-02 12:12:00,
2013-03-02 07:17:00,31.5,27.8,29.59,NNW,338,5.4,5.4,86,0.00,,OVC,0.00,VWS V14.01,2013-03-02 12:17:00,
2013-03-02 07:22:00,31.6,27.9,29.59,NNW,338,4.7,7.2,86,0.00,,OVC,0.00,VWS V14.01,2013-03-02 12:22:00,
2013-03-02 07:27:00,31.8,27.5,29.59,NNW,338,6.0,6.3,84,0.00,,OVC,0.00,VWS V14.01,2013-03-02 12:27:00,
2013-03-02 07:30:00,31.6,27.7,29.59,NW,315,5.4,6.0,85,0.00,,OVC,0.00,VWS V14.01,2013-03-02 12:30:00,
2013-03-02 07:32:00,32.0,27.4,29.59,NNW,338,5.6,10.5,83,0.00,,OVC,0.00,VWS V14.01,2013-03-02 12:32:00,
2013-03-02 07:37:00,32.0,26.8,29.59,NNW,338,5.4,5.6,81,0.00,,OVC,0.00,VWS V14.01,2013-03-02 12:37:00,
2013-03-02 07:42:00,32.2,27.3,29.59,NNW,338,7.4,7.4,82,0.00,,OVC,0.00,VWS V14.01,2013-03-02 12:42:00,
2013-03-02 07:47:00,32.4,27.2,29.59,NNW,338,5.6,6.7,81,0.00,,OVC,0.00,VWS V14.01,2013-03-02 12:47:00,
2013-03-02 07:52:00,32.4,26.9,29.59,NNW,338,4.9,6.3,80,0.00,,OVC,0.00,VWS V14.01,2013-03-02 12:52:00,
2013-03-02 07:57:00,32.5,27.1,29.59,NW,315,5.6,8.1,80,0.00,,OVC,0.00,VWS V14.01,2013-03-02 12:57:00,
2013-03-02 08:00:00,32.5,27.1,29.59,NNW,338,6.5,7.6,80,0.00,,OVC,0.00,VWS V14.01,2013-03-02 13:00:00,
2013-03-02 08:02:00,32.7,27.2,29.59,NNW,338,3.1,4.3,80,0.00,,OVC,0.00,VWS V14.01,2013-03-02 13:02:00,
2013-03-02 08:07:00,32.7,26.9,29.59,NNW,338,4.3,7.8,79,0.00,,OVC,0.00,VWS V14.01,2013-03-02 13:07:00,
2013-03-02 08:12:00,32.9,26.8,29.59,NNW,338,3.8,7.4,78,0.00,,OVC,0.00,VWS V14.01,2013-03-02 13:12:00,
2013-03-02 08:17:00,32.9,26.8,29.59,NNW,338,5.6,8.7,78,0.00,,OVC,0.00,VWS V14.01,2013-03-02 13:17:00,
2013-03-02 08:22:00,33.1,26.7,29.59,NNW,338,5.8,8.5,77,0.00,,OVC,0.00,VWS V14.01,2013-03-02 13:22:00,
2013-03-02 08:27:00,33.3,27.1,29.59,NNW,338,5.8,6.3,78,0.00,,OVC,0.00,VWS V14.01,2013-03-02 13:27:00,
2013-03-02 08:30:00,33.1,26.7,29.59,NW,315,4.3,6.5,77,0.00,,OVC,0.00,VWS V14.01,2013-03-02 13:30:00,
2013-03-02 08:32:00,33.3,26.5,29.59,NNW,338,4.0,7.8,76,0.00,,OVC,0.00,VWS V14.01,2013-03-02 13:32:00,
2013-03-02 08:37:00,33.3,26.2,29.59,NW,315,6.3,10.3,75,0.00,,OVC,0.00,VWS V14.01,2013-03-02 13:37:00,
2013-03-02 08:42:00,33.3,25.9,29.59,NW,315,6.3,10.3,74,0.00,,OVC,0.00,VWS V14.01,2013-03-02 13:42:00,
2013-03-02 08:47:00,33.3,25.6,29.59,North,0,6.3,9.0,73,0.00,,OVC,0.00,VWS V14.01,2013-03-02 13:47:00,
2013-03-02 08:52:00,33.6,25.6,29.59,NNW,338,6.0,7.6,72,0.00,,OVC,0.00,VWS V14.01,2013-03-02 13:52:00,
2013-03-02 08:57:00,33.8,25.4,29.59,NNW,338,6.0,8.1,71,0.00,,OVC,0.00,VWS V14.01,2013-03-02 13:57:00,
2013-03-02 09:00:00,33.6,25.6,29.59,NNW,338,4.9,7.6,72,0.00,,OVC,0.00,VWS V14.01,2013-03-02 14:00:00,
2013-03-02 09:02:00,34.0,25.2,29.59,NNW,338,4.0,6.5,70,0.00,,OVC,0.00,VWS V14.01,2013-03-02 14:02:00,
2013-03-02 09:07:00,34.0,25.2,29.59,NNW,338,7.4,7.4,70,0.00,,OVC,0.00,VWS V14.01,2013-03-02 14:07:00,
2013-03-02 09:12:00,34.5,25.4,29.59,NNW,338,5.6,6.0,69,0.00,,OVC,0.00,VWS V14.01,2013-03-02 14:12:00,
2013-03-02 09:17:00,34.5,24.7,29.59,NNW,338,9.0,9.0,67,0.00,,OVC,0.00,VWS V14.01,2013-03-02 14:17:00,
2013-03-02 09:22:00,34.5,24.4,29.59,NNW,338,6.3,10.5,66,0.00,,OVC,0.00,VWS V14.01,2013-03-02 14:22:00,
2013-03-02 09:27:00,34.9,24.7,29.59,NW,315,6.5,8.7,66,0.00,,OVC,0.00,VWS V14.01,2013-03-02 14:27:00,
2013-03-02 09:30:00,34.9,24.7,29.59,NNW,338,4.9,8.5,66,0.00,,OVC,0.00,VWS V14.01,2013-03-02 14:30:00,
2013-03-02 09:32:00,34.9,24.7,29.56,NNW,338,7.8,8.5,66,0.00,,OVC,0.00,VWS V14.01,2013-03-02 14:32:00,
2013-03-02 09:37:00,34.9,24.7,29.56,NW,315,5.6,7.6,66,0.00,,OVC,0.00,VWS V14.01,2013-03-02 14:37:00,
2013-03-02 09:42:00,35.1,24.9,29.56,NW,315,7.6,7.8,66,0.00,,OVC,0.00,VWS V14.01,2013-03-02 14:42:00,
2013-03-02 09:47:00,35.1,24.1,29.59,NNW,338,8.1,8.1,64,0.00,,OVC,0.00,VWS V14.01,2013-03-02 14:47:00,
2013-03-02 09:52:00,35.4,25.2,29.59,NNW,338,6.0,7.2,66,0.00,,OVC,0.00,VWS V14.01,2013-03-02 14:52:00,
2013-03-02 09:57:00,35.2,24.3,29.59,NNW,338,7.8,9.6,64,0.00,,OVC,0.00,VWS V14.01,2013-03-02 14:57:00,
2013-03-02 10:00:00,35.2,24.3,29.59,NNW,338,4.0,8.7,64,0.00,,OVC,0.00,VWS V14.01,2013-03-02 15:00:00,
2013-03-02 10:03:00,35.1,24.5,29.56,North,0,6.0,7.8,65,0.00,,OVC,0.00,VWS V14.01,2013-03-02 15:03:00,
2013-03-02 10:08:00,35.4,24.8,29.56,NNW,338,5.8,6.0,65,0.00,,OVC,0.00,VWS V14.01,2013-03-02 15:08:00,
2013-03-02 10:13:00,35.6,25.0,29.56,NNW,338,10.5,10.5,65,0.00,,OVC,0.00,VWS V14.01,2013-03-02 15:13:00,
2013-03-02 10:18:00,35.6,24.6,29.56,NNW,338,8.7,8.7,64,0.00,,OVC,0.00,VWS V14.01,2013-03-02 15:18:00,
2013-03-02 10:23:00,35.6,24.6,29.56,NNW,338,5.6,6.3,64,0.00,,OVC,0.00,VWS V14.01,2013-03-02 15:23:00,
2013-03-02 10:28:00,35.8,24.4,29.56,NNW,338,7.4,7.6,63,0.00,,OVC,0.00,VWS V14.01,2013-03-02 15:28:00,
2013-03-02 10:30:00,35.8,24.4,29.56,NNW,338,7.2,7.2,63,0.00,,OVC,0.00,VWS V14.01,2013-03-02 15:30:00,
2013-03-02 10:33:00,35.8,24.4,29.59,NNW,338,7.6,8.7,63,0.00,,OVC,0.00,VWS V14.01,2013-03-02 15:33:00,
2013-03-02 10:38:00,36.1,24.8,29.59,NNW,338,6.5,10.1,63,0.00,,OVC,0.00,VWS V14.01,2013-03-02 15:38:00,
2013-03-02 10:43:00,36.3,25.0,29.59,NW,315,7.6,7.6,63,0.00,,OVC,0.00,VWS V14.01,2013-03-02 15:43:00,
2013-03-02 10:48:00,36.1,25.1,29.56,NW,315,5.6,6.5,64,0.00,,OVC,0.00,VWS V14.01,2013-03-02 15:48:00,
2013-03-02 10:53:00,36.0,24.6,29.56,NNW,338,5.8,10.7,63,0.00,,OVC,0.00,VWS V14.01,2013-03-02 15:53:00,
2013-03-02 10:58:00,35.6,25.4,29.56,NNW,338,10.7,10.7,66,0.00,,OVC,0.00,VWS V14.01,2013-03-02 15:58:00,
2013-03-02 11:00:00,35.6,24.6,29.56,NNW,338,11.4,11.4,64,0.00,,OVC,0.00,VWS V14.01,2013-03-02 16:00:00,
2013-03-02 11:03:00,35.2,25.8,29.59,NNW,338,6.3,7.2,68,0.00,,OVC,0.00,VWS V14.01,2013-03-02 16:03:00,
2013-03-02 11:08:00,35.4,27.3,29.59,NNW,338,6.0,7.4,72,0.00,,OVC,0.00,VWS V14.01,2013-03-02 16:08:00,
2013-03-02 11:13:00,35.4,27.3,29.59,NW,315,4.9,6.0,72,0.00,,OVC,0.00,VWS V14.01,2013-03-02 16:13:00,
2013-03-02 11:18:00,35.8,27.6,29.56,NW,315,5.6,7.4,72,0.00,,OVC,0.00,VWS V14.01,2013-03-02 16:18:00,
2013-03-02 11:23:00,36.1,27.3,29.56,NNW,338,8.1,8.5,70,0.00,,OVC,0.00,VWS V14.01,2013-03-02 16:23:00,
2013-03-02 11:28:00,36.3,26.8,29.56,NNW,338,9.0,9.0,68,0.00,,OVC,0.00,VWS V14.01,2013-03-02 16:28:00,
2013-03-02 11:30:00,36.1,27.3,29.56,NNW,338,8.5,8.5,70,0.00,,OVC,0.00,VWS V14.01,2013-03-02 16:30:00,
2013-03-02 11:33:00,36.5,26.2,29.56,NNW,338,7.6,11.2,66,0.00,,OVC,0.00,VWS V14.01,2013-03-02 16:33:00,
2013-03-02 11:38:00,37.2,27.3,29.56,NW,315,4.7,9.4,67,0.00,,OVC,0.00,VWS V14.01,2013-03-02 16:38:00,
2013-03-02 11:43:00,37.4,27.1,29.56,NNW,338,10.3,11.2,66,0.00,,OVC,0.00,VWS V14.01,2013-03-02 16:43:00,
2013-03-02 11:48:00,37.9,27.2,29.56,NNW,338,11.0,11.0,65,0.00,,OVC,0.00,VWS V14.01,2013-03-02 16:48:00,
2013-03-02 11:53:00,37.6,26.9,29.56,North,0,10.7,11.0,65,0.00,,OVC,0.00,VWS V14.01,2013-03-02 16:53:00,
2013-03-02 11:58:00,37.6,26.1,29.56,NW,315,6.3,10.7,63,0.00,,OVC,0.00,VWS V14.01,2013-03-02 16:58:00,
2013-03-02 12:00:00,37.6,26.5,29.56,NNW,338,8.7,9.8,64,0.00,,OVC,0.00,VWS V14.01,2013-03-02 17:00:00,
2013-03-02 12:03:00,38.1,26.6,29.56,NW,315,4.0,8.1,63,0.00,,OVC,0.00,VWS V14.01,2013-03-02 17:03:00,
2013-03-02 12:08:00,38.1,26.6,29.56,NW,315,8.5,10.3,63,0.00,,OVC,0.00,VWS V14.01,2013-03-02 17:08:00,
2013-03-02 12:13:00,37.6,26.5,29.56,NNW,338,7.2,7.2,64,0.00,,OVC,0.00,VWS V14.01,2013-03-02 17:13:00,
2013-03-02 12:18:00,37.9,27.2,29.56,NNW,338,7.8,8.1,65,0.00,,OVC,0.00,VWS V14.01,2013-03-02 17:18:00,
2013-03-02 12:23:00,37.6,26.9,29.56,NW,315,7.2,10.5,65,0.00,,OVC,0.00,VWS V14.01,2013-03-02 17:23:00,
2013-03-02 12:28:00,37.2,27.6,29.56,NW,315,5.8,8.1,68,0.00,,OVC,0.00,VWS V14.01,2013-03-02 17:28:00,
2013-03-02 12:30:00,37.4,27.5,29.56,NNW,338,4.9,9.8,67,0.00,,OVC,0.00,VWS V14.01,2013-03-02 17:30:00,
2013-03-02 12:33:00,36.9,26.9,29.53,NNW,338,5.6,9.6,67,0.00,,OVC,0.00,VWS V14.01,2013-03-02 17:33:00,
2013-03-02 12:38:00,36.9,28.0,29.53,NNW,338,6.0,10.5,70,0.00,,OVC,0.00,VWS V14.01,2013-03-02 17:38:00,
2013-03-02 12:43:00,36.7,27.8,29.53,NW,315,8.5,8.5,70,0.00,,OVC,0.00,VWS V14.01,2013-03-02 17:43:00,
2013-03-02 12:48:00,36.5,27.7,29.56,NNW,338,5.8,10.5,70,0.00,,OVC,0.00,VWS V14.01,2013-03-02 17:48:00,
2013-03-02 12:54:00,36.7,28.2,29.56,NNW,338,7.4,8.1,71,0.00,,OVC,0.00,VWS V14.01,2013-03-02 17:54:00,
2013-03-02 12:59:00,36.5,28.4,29.56,NNW,338,6.5,9.6,72,0.00,,OVC,0.00,VWS V14.01,2013-03-02 17:59:00,
2013-03-02 13:00:00,36.7,28.5,29.56,NNW,338,6.5,9.8,72,0.00,,OVC,0.00,VWS V14.01,2013-03-02 18:00:00,
2013-03-02 13:04:00,36.7,28.5,29.56,WNW,292,8.7,8.7,72,0.00,,OVC,0.00,VWS V14.01,2013-03-02 18:04:00,
2013-03-02 13:09:00,36.5,28.7,29.56,NNW,338,4.9,7.4,73,0.00,,OVC,0.00,VWS V14.01,2013-03-02 18:09:00,
2013-03-02 13:14:00,36.9,29.4,29.56,NNW,338,3.4,5.8,74,0.00,,OVC,0.00,VWS V14.01,2013-03-02 18:14:00,
2013-03-02 13:19:00,36.9,28.7,29.53,NNW,338,5.4,7.8,72,0.00,,OVC,0.00,VWS V14.01,2013-03-02 18:19:00,
2013-03-02 13:24:00,37.2,29.0,29.53,NW,315,5.8,5.8,72,0.00,,OVC,0.00,VWS V14.01,2013-03-02 18:24:00,
2013-03-02 13:29:00,37.2,28.0,29.53,NNW,338,6.3,8.7,69,0.00,,OVC,0.00,VWS V14.01,2013-03-02 18:29:00,
2013-03-02 13:30:00,37.2,28.4,29.53,NNW,338,8.1,8.1,70,0.00,,OVC,0.00,VWS V14.01,2013-03-02 18:30:00,
2013-03-02 13:34:00,37.9,28.3,29.56,NNW,338,2.9,5.6,68,0.00,,OVC,0.00,VWS V14.01,2013-03-02 18:34:00,
2013-03-02 13:39:00,37.4,27.5,29.56,NNW,338,5.6,7.6,67,0.00,,OVC,0.00,VWS V14.01,2013-03-02 18:39:00,
2013-03-02 13:44:00,37.4,27.1,29.56,NNW,338,6.7,6.7,66,0.00,,OVC,0.00,VWS V14.01,2013-03-02 18:44:00,
2013-03-02 13:49:00,37.8,27.8,29.53,NNW,338,7.4,7.4,67,0.00,,OVC,0.00,VWS V14.01,2013-03-02 18:49:00,
2013-03-02 13:54:00,37.9,27.6,29.53,NNW,338,4.3,5.8,66,0.00,,OVC,0.00,VWS V14.01,2013-03-02 18:54:00,
2013-03-02 13:59:00,38.1,27.4,29.53,NNW,338,6.0,6.5,65,0.00,,OVC,0.00,VWS V14.01,2013-03-02 18:59:00,
2013-03-02 14:00:00,38.1,27.8,29.53,NNW,338,4.0,5.8,66,0.00,,OVC,0.00,VWS V14.01,2013-03-02 19:00:00,
2013-03-02 14:04:00,38.1,27.4,29.56,NNW,338,5.6,8.5,65,0.00,,OVC,0.00,VWS V14.01,2013-03-02 19:04:00,
2013-03-02 14:09:00,38.7,28.3,29.56,NW,315,5.8,6.0,66,0.00,,OVC,0.00,VWS V14.01,2013-03-02 19:09:00,
2013-03-02 14:14:00,38.1,27.4,29.56,NNW,338,9.4,9.4,65,0.00,,OVC,0.00,VWS V14.01,2013-03-02 19:14:00,
2013-03-02 14:19:00,37.6,27.3,29.56,NNW,338,9.8,9.8,66,0.00,,OVC,0.00,VWS V14.01,2013-03-02 19:19:00,
2013-03-02 14:24:00,37.6,27.3,29.56,North,0,8.1,8.1,66,0.00,,OVC,0.00,VWS V14.01,2013-03-02 19:24:00,
2013-03-02 14:29:00,37.2,27.3,29.56,NW,315,8.5,8.7,67,0.00,,OVC,0.00,VWS V14.01,2013-03-02 19:29:00,
2013-03-02 14:30:00,37.6,27.3,29.56,NNW,338,6.5,9.8,66,0.00,,OVC,0.00,VWS V14.01,2013-03-02 19:30:00,
2013-03-02 14:34:00,37.0,28.2,29.56,NNW,338,4.9,7.6,70,0.00,,OVC,0.00,VWS V14.01,2013-03-02 19:34:00,
2013-03-02 14:39:00,37.0,28.5,29.56,WNW,292,6.5,6.5,71,0.00,,OVC,0.00,VWS V14.01,2013-03-02 19:39:00,
2013-03-02 14:44:00,37.0,28.5,29.56,NNW,338,5.4,5.4,71,0.00,,OVC,0.00,VWS V14.01,2013-03-02 19:44:00,
2013-03-02 14:49:00,37.0,28.9,29.56,NNW,338,5.4,6.3,72,0.00,,OVC,0.00,VWS V14.01,2013-03-02 19:49:00,
2013-03-02 14:54:00,37.0,28.9,29.56,NNW,338,4.9,5.4,72,0.00,,OVC,0.00,VWS V14.01,2013-03-02 19:54:00,
2013-03-02 14:59:00,37.0,28.9,29.56,NNW,338,4.0,6.0,72,0.00,,OVC,0.00,VWS V14.01,2013-03-02 19:59:00,
2013-03-02 15:00:00,37.0,28.9,29.56,NNE,22,5.6,8.5,72,0.00,,OVC,0.00,VWS V14.01,2013-03-02 20:00:00,
2013-03-02 15:04:00,37.0,29.2,29.56,NNW,338,4.9,4.9,73,0.00,,OVC,0.00,VWS V14.01,2013-03-02 20:04:00,
2013-03-02 15:09:00,37.0,29.5,29.56,NNW,338,5.4,6.3,74,0.00,,OVC,0.00,VWS V14.01,2013-03-02 20:09:00,
2013-03-02 15:14:00,37.0,29.5,29.56,NNW,338,5.6,5.6,74,0.00,,OVC,0.00,VWS V14.01,2013-03-02 20:14:00,
2013-03-02 15:19:00,36.9,29.7,29.53,WNW,292,6.0,7.6,75,0.00,,OVC,0.00,VWS V14.01,2013-03-02 20:19:00,
2013-03-02 15:24:00,36.7,29.5,29.53,NNW,338,4.3,4.3,75,0.00,,OVC,0.00,VWS V14.01,2013-03-02 20:24:00,
2013-03-02 15:29:00,36.7,29.8,29.53,NW,315,4.0,4.0,76,0.00,,OVC,0.00,VWS V14.01,2013-03-02 20:29:00,
2013-03-02 15:30:00,36.7,29.8,29.53,NNW,338,6.3,6.3,76,0.00,,OVC,0.00,VWS V14.01,2013-03-02 20:30:00,
2013-03-02 15:34:00,36.7,30.2,29.56,NNW,338,5.6,5.6,77,0.00,,OVC,0.00,VWS V14.01,2013-03-02 20:34:00,
2013-03-02 15:39:00,36.7,30.5,29.56,NW,315,4.9,5.4,78,0.00,,OVC,0.00,VWS V14.01,2013-03-02 20:39:00,
2013-03-02 15:44:00,36.3,30.4,29.56,NNW,338,3.8,4.7,79,0.00,,OVC,0.00,VWS V14.01,2013-03-02 20:44:00,
2013-03-02 15:49:00,36.1,30.6,29.56,NNW,338,2.9,3.8,80,0.00,,OVC,0.00,VWS V14.01,2013-03-02 20:49:00,
2013-03-02 15:54:00,35.8,31.1,29.56,NNW,338,4.9,4.9,83,0.00,,OVC,0.00,VWS V14.01,2013-03-02 20:54:00,
2013-03-02 15:59:00,35.8,31.4,29.56,NNW,338,3.8,4.9,84,0.00,,OVC,0.00,VWS V14.01,2013-03-02 20:59:00,
2013-03-02 16:00:00,35.8,31.4,29.56,NNW,338,6.3,6.3,84,0.00,,OVC,0.00,VWS V14.01,2013-03-02 21:00:00,
2013-03-02 16:04:00,35.8,32.0,29.56,NW,315,3.1,4.7,86,0.00,,OVC,0.00,VWS V14.01,2013-03-02 21:04:00,
2013-03-02 16:09:00,35.6,32.1,29.56,NNW,338,3.8,5.4,87,0.00,,OVC,0.00,VWS V14.01,2013-03-02 21:09:00,
2013-03-02 16:14:00,35.4,32.5,29.56,NNW,338,4.9,4.9,89,0.00,,OVC,0.00,VWS V14.01,2013-03-02 21:14:00,
2013-03-02 16:19:00,35.2,32.3,29.56,NNW,338,3.8,3.8,89,0.00,,OVC,0.00,VWS V14.01,2013-03-02 21:19:00,
2013-03-02 16:24:00,35.1,32.4,29.56,NNW,338,2.5,4.3,90,0.00,,OVC,0.00,VWS V14.01,2013-03-02 21:24:00,
2013-03-02 16:29:00,34.9,32.8,29.56,NNW,338,3.8,5.4,92,0.00,,OVC,0.00,VWS V14.01,2013-03-02 21:29:00,
2013-03-02 16:30:00,35.1,33.0,29.56,NNW,338,2.9,4.0,92,0.00,,OVC,0.00,VWS V14.01,2013-03-02 21:30:00,
2013-03-02 16:34:00,34.9,33.1,29.59,NNW,338,4.0,4.0,93,0.00,,OVC,0.00,VWS V14.01,2013-03-02 21:34:00,
2013-03-02 16:39:00,34.9,33.3,29.59,NNW,338,3.8,3.8,94,0.00,,OVC,0.00,VWS V14.01,2013-03-02 21:39:00,
2013-03-02 16:45:00,34.7,33.4,29.59,NNW,338,2.2,4.0,95,0.00,,OVC,0.00,VWS V14.01,2013-03-02 21:45:00,
2013-03-02 16:49:00,34.5,33.2,29.59,NNW,338,3.4,3.6,95,0.00,,OVC,0.00,VWS V14.01,2013-03-02 21:49:00,
2013-03-02 16:55:00,34.5,33.5,29.59,NNW,338,3.4,3.8,96,0.00,,OVC,0.00,VWS V14.01,2013-03-02 21:55:00,
2013-03-02 16:59:00,34.3,33.3,29.59,NNW,338,3.1,3.4,96,0.00,,OVC,0.00,VWS V14.01,2013-03-02 21:59:00,
2013-03-02 17:00:00,34.3,33.3,29.59,NNW,338,2.7,3.4,96,0.00,,OVC,0.00,VWS V14.01,2013-03-02 22:00:00,
2013-03-02 17:04:00,34.2,33.4,29.59,NNW,338,2.9,2.9,97,0.00,,OVC,0.00,VWS V14.01,2013-03-02 22:04:00,
2013-03-02 17:10:00,34.2,33.4,29.59,NNW,338,2.5,3.4,97,0.00,,OVC,0.00,VWS V14.01,2013-03-02 22:10:00,
2013-03-02 17:15:00,34.0,33.2,29.59,NNW,338,2.9,3.4,97,0.00,,OVC,0.00,VWS V14.01,2013-03-02 22:15:00,
2013-03-02 17:20:00,34.0,33.5,29.59,NNW,338,3.1,3.1,98,0.00,,OVC,0.00,VWS V14.01,2013-03-02 22:20:00,
2013-03-02 17:25:00,33.8,33.3,29.59,NNW,338,3.1,3.8,98,0.00,,OVC,0.00,VWS V14.01,2013-03-02 22:25:00,
2013-03-02 17:30:00,33.6,33.1,29.59,NNW,338,3.1,4.3,98,0.00,,OVC,0.00,VWS V14.01,2013-03-02 22:30:00,
2013-03-02 17:35:00,33.6,33.1,29.59,NNW,338,2.9,4.3,98,0.00,,OVC,0.00,VWS V14.01,2013-03-02 22:35:00,
2013-03-02 17:40:00,33.6,33.1,29.59,NNW,338,3.4,4.0,98,0.00,,OVC,0.00,VWS V14.01,2013-03-02 22:40:00,
2013-03-02 17:45:00,33.6,33.1,29.59,NNW,338,3.1,4.3,98,0.00,,OVC,0.00,VWS V14.01,2013-03-02 22:45:00,
2013-03-02 17:50:00,33.6,33.1,29.59,NNW,338,2.5,3.8,98,0.00,,OVC,0.00,VWS V14.01,2013-03-02 22:50:00,
2013-03-02 17:55:00,33.6,33.1,29.59,NNW,338,3.4,4.7,98,0.00,,OVC,0.00,VWS V14.01,2013-03-02 22:55:00,
2013-03-02 18:00:00,33.6,33.1,29.59,NNW,338,3.1,4.3,98,0.00,,OVC,0.00,VWS V14.01,2013-03-02 23:00:00,
2013-03-02 18:05:00,33.8,33.3,29.62,NNW,338,3.4,4.3,98,0.00,,OVC,0.00,VWS V14.01,2013-03-02 23:05:00,
2013-03-02 18:10:00,33.8,33.3,29.62,NNW,338,4.0,4.9,98,0.00,,OVC,0.00,VWS V14.01,2013-03-02 23:10:00,
2013-03-02 18:15:00,33.8,33.3,29.62,NNW,338,4.3,4.3,98,0.00,,OVC,0.00,VWS V14.01,2013-03-02 23:15:00,
2013-03-02 18:20:00,33.8,33.3,29.62,NNW,338,3.8,4.3,98,0.00,,OVC,0.00,VWS V14.01,2013-03-02 23:20:00,
2013-03-02 18:25:00,34.0,33.5,29.62,NNW,338,3.6,5.6,98,0.00,,OVC,0.00,VWS V14.01,2013-03-02 23:25:00,
2013-03-02 18:30:00,33.8,33.3,29.62,NNW,338,3.6,3.6,98,0.00,,OVC,0.00,VWS V14.01,2013-03-02 23:30:00,
2013-03-02 18:35:00,34.0,33.5,29.59,NNW,338,1.6,3.1,98,0.00,,OVC,0.00,VWS V14.01,2013-03-02 23:35:00,
2013-03-02 18:40:00,33.8,33.3,29.59,NNW,338,2.0,2.7,98,0.00,,OVC,0.00,VWS V14.01,2013-03-02 23:40:00,
2013-03-02 18:45:00,34.0,33.5,29.59,NNW,338,2.7,3.6,98,0.00,,OVC,0.00,VWS V14.01,2013-03-02 23:45:00,
2013-03-02 18:50:00,34.0,33.5,29.62,NNW,338,2.7,2.7,98,0.00,,OVC,0.00,VWS V14.01,2013-03-02 23:50:00,
2013-03-02 18:51:00,33.8,33.3,30.21,NNW,338,3.6,3.6,98,0.00,,,0.00,VWS V14.01,2013-03-02 23:51:00,
2013-03-02 18:52:00,33.8,33.3,29.62,NNW,338,2.9,3.6,98,0.00,,,0.00,VWS V14.01,2013-03-02 23:52:00,
2013-03-02 18:53:00,33.8,33.3,29.62,NNW,338,3.4,3.6,98,0.00,,,0.00,VWS V14.01,2013-03-02 23:53:00,
2013-03-02 18:54:00,33.8,33.3,29.62,NNW,338,2.7,3.6,98,0.00,,,0.00,VWS V14.01,2013-03-02 23:54:00,
2013-03-02 18:55:00,34.0,33.5,29.62,NNW,338,1.6,3.6,98,0.00,,OVC,0.00,VWS V14.01,2013-03-02 23:55:00,
2013-03-02 19:00:00,34.0,33.5,29.62,NNW,338,3.1,3.1,98,0.00,,OVC,0.00,VWS V14.01,2013-03-03 00:00:00,
2013-03-02 19:05:00,33.8,33.3,29.62,NNW,338,2.5,3.1,98,0.00,,OVC,0.00,VWS V14.01,2013-03-03 00:05:00,
2013-03-02 19:10:00,33.8,33.3,29.62,NNW,338,3.8,3.8,98,0.00,,OVC,0.00,VWS V14.01,2013-03-03 00:10:00,
2013-03-02 19:15:00,33.8,33.3,29.62,NNW,338,1.6,2.2,98,0.00,,OVC,0.00,VWS V14.01,2013-03-03 00:15:00,
2013-03-02 19:20:00,33.8,33.3,29.62,NNW,338,1.1,2.2,98,0.00,,OVC,0.00,VWS V14.01,2013-03-03 00:20:00,
2013-03-02 19:26:00,33.8,33.3,29.62,NNW,338,3.6,3.6,98,0.00,,OVC,0.00,VWS V14.01,2013-03-03 00:26:00,
2013-03-02 19:30:00,33.8,33.3,29.62,NNW,338,2.2,3.6,98,0.00,,OVC,0.00,VWS V14.01,2013-03-03 00:30:00,
2013-03-02 19:31:00,33.8,33.3,29.62,NNW,338,2.7,2.7,98,0.00,,OVC,0.00,VWS V14.01,2013-03-03 00:31:00,
2013-03-02 19:36:00,33.8,33.3,29.62,NW,315,2.9,4.0,98,0.00,,OVC,0.00,VWS V14.01,2013-03-03 00:36:00,
2013-03-02 19:41:00,33.8,33.3,29.62,NNW,338,2.5,2.5,98,0.00,,OVC,0.00,VWS V14.01,2013-03-03 00:41:00,
2013-03-02 19:46:00,33.8,33.3,29.62,NNW,338,2.2,2.7,98,0.00,,OVC,0.00,VWS V14.01,2013-03-03 00:46:00,
2013-03-02 19:51:00,33.8,33.3,30.21,NNW,338,3.6,3.6,98,0.00,,,0.00,VWS V14.01,2013-03-03 00:51:00,
2013-03-02 19:52:00,33.8,33.3,29.62,NNW,338,2.5,3.6,98,0.00,,OVC,0.00,VWS V14.01,2013-03-03 00:52:00,
2013-03-02 19:53:00,33.8,33.3,29.62,NNW,338,3.4,3.6,98,0.00,,,0.00,VWS V14.01,2013-03-03 00:53:00,
2013-03-02 19:54:00,33.8,33.3,29.62,NNW,338,2.7,3.6,98,0.00,,,0.00,VWS V14.01,2013-03-03 00:54:00,
2013-03-02 19:57:00,33.8,33.3,29.62,NNW,338,3.4,4.3,98,0.00,,OVC,0.00,VWS V14.01,2013-03-03 00:57:00,
2013-03-02 20:00:00,34.3,33.8,29.62,NNW,338,2.9,3.6,98,0.00,,,0.00,VWS V14.01,2013-03-03 01:00:00,
2013-03-02 20:02:00,34.0,33.5,29.62,NNW,338,3.4,4.0,98,0.00,,OVC,0.00,VWS V14.01,2013-03-03 01:02:00,
2013-03-02 20:07:00,34.2,33.7,29.62,NNW,338,4.0,4.0,98,0.00,,OVC,0.00,VWS V14.01,2013-03-03 01:07:00,
2013-03-02 20:12:00,34.2,33.7,29.62,NNW,338,3.6,4.3,98,0.00,,OVC,0.00,VWS V14.01,2013-03-03 01:12:00,
2013-03-02 20:17:00,34.2,33.7,29.62,NNW,338,4.0,4.7,98,0.00,,OVC,0.00,VWS V14.01,2013-03-03 01:17:00,
2013-03-02 20:22:00,34.2,33.7,29.62,NNW,338,3.1,5.8,98,0.00,,OVC,0.00,VWS V14.01,2013-03-03 01:22:00,
2013-03-02 20:27:00,34.3,33.8,29.62,NNW,338,2.9,4.0,98,0.00,,OVC,0.00,VWS V14.01,2013-03-03 01:27:00,
2013-03-02 20:30:00,34.3,33.8,29.62,NNW,338,2.7,3.4,98,0.00,,,0.00,VWS V14.01,2013-03-03 01:30:00,
2013-03-02 20:32:00,34.2,33.7,29.59,NW,315,3.1,3.1,98,0.00,,OVC,0.00,VWS V14.01,2013-03-03 01:32:00,
2013-03-02 20:37:00,34.2,33.7,29.59,NNW,338,2.7,3.4,98,0.00,,OVC,0.00,VWS V14.01,2013-03-03 01:37:00,
2013-03-02 20:42:00,34.2,33.7,29.59,NNW,338,2.7,3.8,98,0.00,,OVC,0.00,VWS V14.01,2013-03-03 01:42:00,
2013-03-02 20:47:00,34.3,33.8,29.62,NNW,338,2.5,2.9,98,0.00,,OVC,0.00,VWS V14.01,2013-03-03 01:47:00,
2013-03-02 20:52:00,34.3,33.8,29.62,NNW,338,2.5,3.8,98,0.00,,OVC,0.00,VWS V14.01,2013-03-03 01:52:00,
2013-03-02 20:57:00,34.3,33.8,29.62,NNW,338,3.8,3.8,98,0.00,,OVC,0.00,VWS V14.01,2013-03-03 01:57:00,
2013-03-02 21:00:00,34.0,33.5,29.62,NNW,338,2.0,2.9,98,0.00,,,0.00,VWS V14.01,2013-03-03 02:00:00,
2013-03-02 21:02:00,34.3,33.8,29.62,NNW,338,2.2,2.7,98,0.00,,OVC,0.00,VWS V14.01,2013-03-03 02:02:00,
2013-03-02 21:07:00,34.3,33.8,29.62,NNW,338,3.4,3.6,98,0.00,,OVC,0.00,VWS V14.01,2013-03-03 02:07:00,
2013-03-02 21:12:00,34.3,33.8,29.62,NNW,338,2.2,2.7,98,0.00,,OVC,0.00,VWS V14.01,2013-03-03 02:12:00,
2013-03-02 21:17:00,34.3,33.8,29.62,NNW,338,2.9,3.6,98,0.00,,OVC,0.00,VWS V14.01,2013-03-03 02:17:00,
2013-03-02 21:22:00,34.3,33.8,29.62,NNW,338,2.0,2.5,98,0.00,,OVC,0.00,VWS V14.01,2013-03-03 02:22:00,
2013-03-02 21:27:00,34.3,33.8,29.62,NNW,338,3.1,3.8,98,0.00,,OVC,0.00,VWS V14.01,2013-03-03 02:27:00,
2013-03-02 21:30:00,34.2,33.7,29.59,NNW,338,2.9,2.9,98,0.00,,,0.00,VWS V14.01,2013-03-03 02:30:00,
2013-03-02 21:32:00,34.2,33.7,29.62,NNW,338,2.0,2.7,98,0.00,,OVC,0.00,VWS V14.01,2013-03-03 02:32:00,
2013-03-02 21:37:00,34.2,33.7,29.62,NNW,338,2.9,2.9,98,0.00,,OVC,0.00,VWS V14.01,2013-03-03 02:37:00,
2013-03-02 21:42:00,34.2,33.7,29.62,NNW,338,2.9,2.9,98,0.00,,OVC,0.00,VWS V14.01,2013-03-03 02:42:00,
2013-03-02 21:47:00,34.0,33.5,29.62,NNW,338,2.9,2.9,98,0.00,,OVC,0.00,VWS V14.01,2013-03-03 02:47:00,
2013-03-02 21:52:00,34.0,33.5,29.62,NNW,338,2.9,2.9,98,0.00,,OVC,0.00,VWS V14.01,2013-03-03 02:52:00,
2013-03-02 21:57:00,33.8,33.3,29.62,NNW,338,2.0,2.9,98,0.00,,OVC,0.00,VWS V14.01,2013-03-03 02:57:00,
2013-03-02 22:00:00,34.5,34.0,29.59,NNW,338,2.5,2.5,98,0.00,,,0.00,VWS V14.01,2013-03-03 03:00:00,
2013-03-02 22:02:00,34.0,33.5,29.59,NNW,338,1.3,2.5,98,0.00,,OVC,0.00,VWS V14.01,2013-03-03 03:02:00,
2013-03-02 22:07:00,34.0,33.5,29.59,NW,315,3.1,3.4,98,0.00,,OVC,0.00,VWS V14.01,2013-03-03 03:07:00,
2013-03-02 22:12:00,34.2,33.7,29.59,NW,315,2.2,4.5,98,0.00,,OVC,0.00,VWS V14.01,2013-03-03 03:12:00,
2013-03-02 22:17:00,34.0,33.5,29.59,NNW,338,2.2,2.2,98,0.00,,OVC,0.00,VWS V14.01,2013-03-03 03:17:00,
2013-03-02 22:22:00,34.2,33.7,29.59,NNW,338,2.5,2.5,98,0.00,,OVC,0.00,VWS V14.01,2013-03-03 03:22:00,
2013-03-02 22:28:00,34.2,33.7,29.59,NNW,338,2.7,2.9,98,0.00,,OVC,0.00,VWS V14.01,2013-03-03 03:28:00,
2013-03-02 22:30:00,34.2,33.7,29.59,NW,315,6.3,6.3,98,0.00,,,0.00,VWS V14.01,2013-03-03 03:30:00,
2013-03-02 22:33:00,34.2,33.7,29.59,NNW,338,1.6,2.7,98,0.00,,OVC,0.00,VWS V14.01,2013-03-03 03:33:00,
2013-03-02 22:38:00,34.2,33.7,29.59,NW,315,4.3,4.3,98,0.00,,OVC,0.00,VWS V14.01,2013-03-03 03:38:00,
2013-03-02 22:43:00,34.3,33.8,29.59,NNW,338,2.9,4.3,98,0.00,,OVC,0.00,VWS V14.01,2013-03-03 03:43:00,
2013-03-02 22:48:00,34.5,34.0,29.59,NNW,338,6.3,6.3,98,0.00,,OVC,0.00,VWS V14.01,2013-03-03 03:48:00,
2013-03-02 22:53:00,34.3,33.8,29.59,NW,315,2.7,2.7,98,0.00,,OVC,0.00,VWS V14.01,2013-03-03 03:53:00,
2013-03-02 22:58:00,34.5,34.0,29.59,NNW,338,2.5,2.5,98,0.00,,OVC,0.00,VWS V14.01,2013-03-03 03:58:00,
2013-03-02 23:00:00,34.3,33.8,29.56,NNW,338,3.1,3.1,98,0.00,,,0.00,VWS V14.01,2013-03-03 04:00:00,
2013-03-02 23:03:00,34.5,34.0,29.59,NNW,338,2.7,2.7,98,0.00,,OVC,0.00,VWS V14.01,2013-03-03 04:03:00,
2013-03-02 23:08:00,34.3,33.8,29.59,NNW,338,2.7,2.7,98,0.00,,OVC,0.00,VWS V14.01,2013-03-03 04:08:00,
2013-03-02 23:13:00,34.3,33.8,29.59,NNW,338,2.7,2.7,98,0.00,,OVC,0.00,VWS V14.01,2013-03-03 04:13:00,
2013-03-02 23:18:00,34.2,33.7,29.59,NNW,338,0.0,0.0,98,0.00,,OVC,0.00,VWS V14.01,2013-03-03 04:18:00,
2013-03-02 23:23:00,34.2,33.7,29.59,NNW,338,0.0,0.0,98,0.00,,OVC,0.00,VWS V14.01,2013-03-03 04:23:00,
2013-03-02 23:28:00,34.3,33.8,29.59,NNW,338,2.9,3.6,98,0.00,,OVC,0.00,VWS V14.01,2013-03-03 04:28:00,
2013-03-02 23:30:00,34.3,33.8,29.56,NW,315,2.9,2.9,98,0.00,,,0.00,VWS V14.01,2013-03-03 04:30:00,
2013-03-02 23:33:00,34.3,33.8,29.56,NNW,338,2.0,2.0,98,0.00,,OVC,0.00,VWS V14.01,2013-03-03 04:33:00,
2013-03-02 23:38:00,34.3,33.8,29.56,NNW,338,2.0,2.0,98,0.00,,OVC,0.00,VWS V14.01,2013-03-03 04:38:00,
2013-03-02 23:43:00,34.3,33.8,29.56,NNW,338,3.1,3.1,98,0.00,,OVC,0.00,VWS V14.01,2013-03-03 04:43:00,
2013-03-02 23:48:00,34.3,33.8,29.56,NNW,338,3.1,3.1,98,0.00,,OVC,0.00,VWS V14.01,2013-03-03 04:48:00,
2013-03-02 23:53:00,34.3,33.8,29.56,NNW,338,3.1,3.1,98,0.00,,OVC,0.00,VWS V14.01,2013-03-03 04:53:00,
2013-03-02 23:58:00,34.3,33.8,29.56,NNW,338,3.1,3.1,98,0.00,,OVC,0.00,VWS V14.01,2013-03-03 04:58:00,